Home > Weather > Volgograd > Past weeks

Flag for Russia Past Weather in Volgograd, Russia — Yesterday and Last 2 Weeks

Now
77 °F

Scattered clouds.


Feels Like: 78 °F
Forecast: 62 / 73 °F
Wind: 15 mph from West

Location: Volgograd Airport

Current Time: Jul 23, 2016 at 4:19:44 PM

Latest Report: Jul 23, 2016 at 3:30 PM


Visibility: N/A

Pressure: 29.74 "Hg

Humidity: 44%

Dew Point: 54 °F

Location of VolgogradLocation

Past Weather in Volgograd — Graph

°F

Volgograd Temperature Yesterday

Maximum temperature yesterday: 82 °F (at 2:00 PM)
Minimum temperature yesterday: 63 °F (at 3:30 AM)
Average temperature yesterday: 70 °F

High & Low Weather Summary for the Past Weeks

 TemperatureHumidityPressure
High100 °F (Jul 16, 2:30 PM)100% (Jul 8, 11:30 PM)30.07 "Hg (Jul 8, 11:30 PM)
Low55 °F (Jul 10, 2:00 AM)15% (Jul 18, 2:00 PM)29.59 "Hg (Jul 19, 1:30 PM)
Average78 °F49%29.88 "Hg
* Reported Jul 8 3:00 PM — Jul 23 3:00 PM, Volgograd, Weather by CustomWeather, © 2016

Note: Actual official high and low records may vary slightly from our data, if they occured in-between our weather recording intervals... More about our weather records

Advertising

Volgograd Weather History for the Previous 24 Hours

Scroll right to see more
 ConditionsComfort  
Time TempWeatherWind HumidityBarometerVisibility
3:00 PM
Sat, Jul 23
79 °FScattered clouds.15 mph42%29.74 "HgN/A
2:30 PM77 °FScattered clouds.15 mph44%29.74 "HgN/A
2:00 PM79 °FScattered clouds.17 mph42%29.74 "HgN/A
1:30 PM79 °FScattered clouds.20 mph39%29.74 "HgN/A
1:00 PM79 °FScattered clouds.22 mph39%29.74 "HgN/A
12:30 PM79 °FScattered clouds.20 mph39%29.74 "HgN/A
12:00 PM77 °FScattered clouds.20 mph44%29.74 "HgN/A
11:30 AM75 °FScattered clouds.22 mph47%29.74 "HgN/A
11:00 AM75 °FScattered clouds.22 mph50%29.74 "HgN/A
10:30 AM75 °FScattered clouds.17 mph50%29.74 "HgN/A
10:00 AM73 °FScattered clouds.15 mph57%29.74 "HgN/A
9:30 AM73 °FScattered clouds.15 mph65%29.74 "HgN/A
9:00 AM72 °FScattered clouds.17 mph73%29.77 "HgN/A
8:30 AM70 °FScattered clouds.15 mph78%29.77 "HgN/A
8:00 AM70 °FScattered clouds.15 mph78%29.77 "HgN/A
7:00 AM68 °FPassing clouds.8 mph78%29.77 "HgN/A
6:30 AM66 °FPassing clouds.6 mph83%29.77 "HgN/A
6:00 AM66 °FScattered clouds.8 mph83%29.77 "HgN/A
5:00 AM66 °FSprinkles. Scattered clouds.8 mph83%29.80 "HgN/A
4:30 AM66 °FPassing clouds.10 mph83%29.80 "HgN/A
4:00 AM66 °FSunny.6 mph73%29.80 "Hg10 mi
3:30 AM66 °FSunny.6 mph73%29.80 "Hg10 mi
3:00 AM66 °FClear.6 mph73%29.80 "Hg10 mi
2:30 AM68 °FClear.8 mph69%29.80 "Hg10 mi
2:00 AM66 °FClear.8 mph73%29.80 "Hg10 mi
1:30 AM66 °FClear.8 mph78%29.80 "Hg10 mi
1:00 AM66 °FClear.6 mph78%29.80 "Hg10 mi
12:30 AM68 °FClear.8 mph73%29.80 "Hg10 mi
12:00 AM66 °FClear.6 mph73%29.80 "Hg10 mi
11:30 PM
Fri, Jul 22
66 °FClear.6 mph73%29.83 "Hg10 mi
11:00 PM66 °FClear.6 mph68%29.83 "Hg10 mi
10:30 PM68 °FClear.6 mph64%29.83 "Hg10 mi
10:00 PM68 °FClear.6 mph64%29.83 "Hg10 mi
9:30 PM70 °FClear.3 mph60%29.86 "Hg10 mi
9:00 PM70 °FClear.3 mph60%29.86 "Hg10 mi
8:30 PM72 °FClear.3 mph57%29.86 "Hg10 mi
8:00 PM72 °FClear.6 mph57%29.86 "Hg10 mi
7:00 PM75 °FClear.8 mph50%29.83 "Hg10 mi
6:30 PM77 °FSunny.8 mph47%29.83 "Hg10 mi
6:00 PM77 °FSunny.13 mph47%29.83 "Hg10 mi
5:30 PM77 °FSunny.15 mph47%29.83 "Hg10 mi
5:00 PM79 °FSunny.15 mph42%29.83 "Hg10 mi
4:30 PM79 °FSunny.13 mph42%29.83 "Hg10 mi
4:00 PM79 °FScattered clouds.13 mph45%29.83 "HgN/A
Weather by CustomWeather, © 2016

See weather overviewHow to use our weather pages